sat.trackr.live / text

‹ back to catalog

AIST-2T 2

NORAD 67254 · 2025-313G

PAYLOAD ACTIVE UNKNOWN

§ Identity

Operator
Country
CIS
Launch date
2025-12-28
Launch site
VOSTO
Launch vehicle
Mass (kg)
RCS (m²)

External: N2YO · Heavens-Above · Gunter

§ Orbital elements

Epoch: 2026-05-24T22:35:19.944384Z

Period
92.26 min
Inclination
97.0838°
Eccentricity
0.0006090
Mean motion
15.60798778 rev/d
Perigee alt
381.2 km
Apogee alt
389.5 km
Semi-major
6,763.5 km
B*
3.4582e-4
RAAN
222.4919°
Arg perigee
266.1083°
Mean anomaly
93.9478°
Rev number
2,298

§ Raw data

AIST-2T 21 67254U 25313G   26144.94120306  .00028767  00000+0  34582-3 0  99942 67254  97.0838 222.4919 0006090 266.1083  93.9478 15.60798778 22980

JSON: /api/v1/satellites/67254 · /tle

For live sub-satellite position, see the globe view (requires WebGL).

§ Visibility from observer

Set your observer location to see the next 7 days of passes ≥ 10°. The values pass through the URL so the page stays shareable.

No JS? Fill the form by hand. The geolocation button needs JavaScript.

§ Radio — SatNOGS DB

ModeDescriptionDownlinkUplink
FM Telemetry 435.852 MHz
FM Telemetry 436.030 MHz

2 transmitters · refreshed weekly from db.satnogs.org